Location: Observatoire
(46.1952°N, 5.3391°E)
Time: 16:29:46
(UTC+01:00)

Injun/Solrad 3 - Pass Details

Date: 17 February 2026
Orbit: 872 x 984 km, 66.8° (Epoch: 7 March)

Event Time Altitude Azimuth Distance (km) Brightness Sun altitude
Rises 22:37:56 0° 310° (NW) 3,595 11.7 -45.3°
Reaches altitude 10° 22:41:51 10° 286° (WNW) 2,670 10.8 -45.8°
Enters shadow 22:43:05 12° 275° (W) 2,508 10.5 -46.0°
